EW3922 Weather Reports


time (UTC)temp
C
wind
direction
speed
KPH
gust
KPH
rain 1hr
cm
rain 24hr
cm
rain mn
cm
humidity
%
barometer
mb
20260906113012 23 40 0.0 0.0 0.00 0.00 0.00 70 1013.0
20260906111518 23 40 0.0 0.0 0.00 0.00 0.00 70 1012.9
20260906110018 23 40 0.0 0.0 0.00 0.00 0.00 70 1012.5
20260906104512 23 40 0.0 0.0 0.00 0.00 0.00 70 1012.4
20260906103018 23 40 0.0 0.0 0.00 0.00 0.00 70 1012.1
20260906101509 23 40 0.0 0.0 0.00 0.00 0.00 70 1012.2
20260906100020 23 40 0.0 0.0 0.00 0.00 0.00 70 1012.1
20260906094518 23 40 0.0 0.0 0.00 0.00 0.00 69 1011.9
20260906093018 23 40 0.0 0.0 0.00 0.00 0.00 69 1012.0
20260906091523 23 40 0.0 0.0 0.00 0.00 0.00 69 1012.1
20260906090018 23 40 0.0 0.0 0.00 0.00 0.00 70 1012.2
20260906084519 23 40 0.0 0.0 0.00 0.00 0.00 70 1012.2
20260906083023 23 40 0.0 0.0 0.00 0.00 0.00 71 1011.9
20260906081528 23 40 0.0 0.0 0.00 0.00 0.00 70 1011.7
20260906080023 24 40 0.0 1.6 0.00 0.00 0.00 70 1011.7
20260906074510 24 40 0.0 0.0 0.00 0.00 0.00 71 1011.5
20260906073020 24 40 0.0 0.0 0.00 0.00 0.00 72 1011.6
20260906071511 24 40 0.0 0.0 0.00 0.00 0.00 71 1011.5
20260906070009 24 40 0.0 0.0 0.00 0.00 0.00 72 1011.4
20260906064517 24 40 0.0 0.0 0.00 0.00 0.00 72 1011.7
20260906063007 24 40 0.0 0.0 0.00 0.00 0.00 72 1011.8
20260906061517 24 40 0.0 0.0 0.00 0.00 0.00 73 1011.9
20260906060009 25 40 0.0 0.0 0.00 0.00 0.00 73 1012.0
20260906054520 25 40 0.0 0.0 0.00 0.00 0.00 73 1012.1
20260906053010 25 40 0.0 0.0 0.00 0.00 0.00 73 1012.1
20260906051503 25 40 0.0 0.0 0.00 0.00 0.00 73 1012.2
20260906050044 25 40 0.0 0.0 0.00 0.00 0.00 73 1012.2
20260906044507 25 40 0.0 0.0 0.00 0.00 0.00 74 1012.3
20260906043017 25 40 0.0 0.0 0.00 0.00 0.00 74 1012.5
20260906041507 25 40 0.0 0.0 0.00 0.00 0.00 74 1012.4
20260906040018 25 40 0.0 0.0 0.00 0.00 0.00 75 1012.2
20260906034509 25 40 0.0 0.0 0.00 0.00 0.00 75 1012.3
20260906033024 26 40 0.0 0.0 0.00 0.00 0.00 76 1012.1
20260906031514 26 40 0.0 0.0 0.00 0.00 0.00 77 1011.9
20260906030019 26 40 0.0 0.0 0.00 0.00 0.00 77 1011.8
20260906024514 26 40 0.0 0.0 0.00 0.00 0.00 77 1011.6
20260906023026 26 40 0.0 0.0 0.00 0.00 0.00 77 1011.5
20260906021513 27 40 0.0 0.0 0.00 0.00 0.00 78 1011.6
20260906020009 27 40 0.0 0.0 0.00 0.00 0.00 78 1011.4
20260906014517 27 40 0.0 0.0 0.00 0.00 0.00 78 1011.4
20260906013009 27 40 0.0 0.0 0.00 0.00 0.00 79 1011.3
20260906011515 28 40 0.0 0.0 0.00 0.00 0.00 78 1011.3
20260906010007 28 40 0.0 0.0 0.00 0.00 0.00 78 1011.0
20260906004522 29 40 0.0 0.0 0.00 0.00 0.00 78 1010.9
20260906003010 29 40 0.0 0.0 0.00 0.00 0.00 78 1011.0
20260906001519 30 40 0.0 0.0 0.00 0.00 0.00 77 1011.0
20260906000010 30 40 0.0 0.0 0.00 0.00 0.00 75 1011.0
20260905234558 31 40 0.0 0.0 0.00 0.00 0.00 74 1010.9
20260905233023 32 40 0.0 0.0 0.00 0.00 0.00 73 1011.1
20260905231525 32 40 0.0 0.0 0.00 0.00 0.00 72 1011.0
20260905230013 33 40 0.0 0.0 0.00 0.00 0.00 70 1011.2
20260905224508 33 40 0.0 0.0 0.00 0.00 0.00 68 1011.1
20260905223016 33 40 0.0 0.0 0.00 0.00 0.00 66 1011.0
20260905221508 34 40 0.0 0.0 0.00 0.00 0.00 61 1011.0
20260905220017 35 40 0.0 0.0 0.00 0.00 0.00 60 1011.3
20260905214509 35 40 0.0 0.0 0.00 0.00 0.00 59 1011.3
20260905213020 36 40 0.0 1.6 0.00 0.00 0.00 56 1011.4
20260905211511 36 40 0.0 0.0 0.00 0.00 0.00 55 1011.4
20260905210023 36 40 0.0 0.0 0.00 0.00 0.00 53 1011.5
20260905204512 36 40 0.0 0.0 0.00 0.00 0.00 55 1011.7
20260905203007 36 40 0.0 0.0 0.00 0.00 0.00 56 1011.9
20260905201514 36 40 0.0 0.0 0.00 0.00 0.00 55 1012.1
20260905200009 36 40 0.0 1.6 0.00 0.00 0.00 53 1012.4
20260905194515 35 40 0.0 0.0 0.00 0.00 0.00 57 1012.6
20260905193016 34 40 0.0 1.6 0.00 0.00 0.00 54 1012.9
20260905191519 35 40 0.0 6.4 0.00 0.00 0.00 52 1013.2
20260905190014 36 28 0.0 6.4 0.00 0.00 0.00 55 1013.3
20260905184523 36 40 0.0 0.0 0.00 0.00 0.00 52 1013.4
20260905183024 37 70 0.0 0.0 0.00 0.00 0.00 55 1013.5
20260905181511 36 70 0.0 0.0 0.00 0.00 0.00 58 1013.6
20260905180017 36 70 0.0 0.0 0.00 0.00 0.00 56 1013.8
20260905174516 36 70 0.0 0.0 0.00 0.00 0.00 60 1013.8
20260905173015 36 70 0.0 0.0 0.00 0.00 0.00 55 1013.9
20260905171525 35 59 0.0 0.0 0.00 0.00 0.00 58 1014.1
20260905170013 34 59 0.0 0.0 0.00 0.00 0.00 64 1014.3
20260905164524 33 59 0.0 0.0 0.00 0.00 0.00 66 1014.5
20260905163011 32 59 0.0 0.0 0.00 0.00 0.00 69 1014.6
20260905161523 31 59 0.0 0.0 0.00 0.00 0.00 74 1014.7
20260905160022 30 59 0.0 0.0 0.00 0.00 0.00 77 1014.7
20260905154519 29 59 0.0 0.0 0.00 0.00 0.00 77 1014.8
20260905153012 27 59 0.0 0.0 0.00 0.00 0.00 76 1014.8
20260905151521 26 59 0.0 0.0 0.00 0.00 0.00 64 1015.0
20260905150022 26 59 0.0 0.0 0.00 0.00 0.00 61 1015.0
20260905144539 25 59 0.0 0.0 0.00 0.00 0.00 61 1015.1
20260905143020 25 59 0.0 0.0 0.00 0.00 0.00 61 1014.9
20260905141533 25 59 0.0 0.0 0.00 0.00 0.00 61 1014.9
20260905140015 24 59 0.0 0.0 0.00 0.00 0.00 61 1014.9
20260905134512 23 59 0.0 0.0 0.00 0.00 0.00 62 1015.0
20260905133016 23 59 0.0 0.0 0.00 0.00 0.00 63 1014.9
20260905131503 23 59 0.0 0.0 0.00 0.00 0.00 64 1014.9
20260905130020 23 59 0.0 0.0 0.00 0.00 0.00 64 1014.9
20260905124508 22 59 0.0 0.0 0.00 0.00 0.00 66 1014.7
20260905123021 22 59 0.0 0.0 0.00 0.00 0.00 68 1014.5
20260905121509 22 59 0.0 0.0 0.00 0.00 0.00 68 1014.5
20260905120043 22 59 0.0 0.0 0.00 0.00 0.00 68 1014.5
20260905114520 22 59 0.0 0.0 0.00 0.00 0.00 68 1014.4